******** Week 147 almanac for PRN-1 ******** ID: 1 Health: 0 Eccentricity: 0.01132774353 Time of Applicability(s): 233472 Orbital Inclination(rad): 0.9865078384 Rate of Right Ascen(r/s): -8.114623721e-09 SQRT(A) (m 1/2): 5153.621094 Right Ascen at Week(rad): -1.66071921 Argument of Perigee(rad): 0.8827669951 Mean Anom(rad): 3.052278346 Af0(s): 0.0003497048828 Af1(s/s): -1.091394e-11 week: 147 ******** Week 147 almanac for PRN-2 ******** ID: 2 Health: 0 Eccentricity: 0.02067995071 Time of Applicability(s): 233472 Orbital Inclination(rad): 0.9648643282 Rate of Right Ascen(r/s): -8.194627053e-09 SQRT(A) (m 1/2): 5153.633301 Right Ascen at Week(rad): -1.749742527 Argument of Perigee(rad): -1.448607792 Mean Anom(rad): -3.077088688 Af0(s): -0.0005140058838 Af1(s/s): 0 week: 147 ******** Week 147 almanac for PRN-3 ******** ID: 3 Health: 0 Eccentricity: 0.003860473633 Time of Applicability(s): 233472 Orbital Inclination(rad): 0.9725582006 Rate of Right Ascen(r/s): -8.000333246e-09 SQRT(A) (m 1/2): 5153.643555 Right Ascen at Week(rad): -0.6251020399 Argument of Perigee(rad): 0.9683673175 Mean Anom(rad): 1.890104765 Af0(s): -8.064315185e-05 Af1(s/s): -1.818989e-11 week: 147 ******** Week 147 almanac for PRN-4 ******** ID: 4 Health: 0 Eccentricity: 0.00168800354 Time of Applicability(s): 233472 Orbital Inclination(rad): 0.9614008872 Rate of Right Ascen(r/s): -7.611745631e-09 SQRT(A) (m 1/2): 5153.614746 Right Ascen at Week(rad): 0.4557173795 Argument of Perigee(rad): -3.080417681 Mean Anom(rad): -1.430788747 Af0(s): -0.0001514885376 Af1(s/s): 3.637979e-12 week: 147 ******** Week 147 almanac for PRN-5 ******** ID: 5 Health: 0 Eccentricity: 0.005867958069 Time of Applicability(s): 233472 Orbital Inclination(rad): 0.959525356 Rate of Right Ascen(r/s): -8.160339911e-09 SQRT(A) (m 1/2): 5153.610352 Right Ascen at Week(rad): -0.6653151066 Argument of Perigee(rad): 1.012178273 Mean Anom(rad): -0.5809701317 Af0(s): -5.50182251e-05 Af1(s/s): 0 week: 147 ******** Week 147 almanac for PRN-6 ******** ID: 6 Health: 0 Eccentricity: 0.002662181854 Time of Applicability(s): 233472 Orbital Inclination(rad): 0.9858906508 Rate of Right Ascen(r/s): -8.080336578e-09 SQRT(A) (m 1/2): 5153.612793 Right Ascen at Week(rad): -1.668992445 Argument of Perigee(rad): -0.9763615446 Mean Anom(rad): -2.884013836 Af0(s): 0.0001484738403 Af1(s/s): 1.091394e-11 week: 147 ******** Week 147 almanac for PRN-7 ******** ID: 7 Health: 0 Eccentricity: 0.0154838562 Time of Applicability(s): 233472 Orbital Inclination(rad): 0.9505371873 Rate of Right Ascen(r/s): -8.114623721e-09 SQRT(A) (m 1/2): 5153.629883 Right Ascen at Week(rad): 1.474851372 Argument of Perigee(rad): -2.29365781 Mean Anom(rad): 2.387235881 Af0(s): 0.0002426831299 Af1(s/s): 3.637979e-12 week: 147 ******** Week 147 almanac for PRN-8 ******** ID: 8 Health: 0 Eccentricity: 0.007234096527 Time of Applicability(s): 233472 Orbital Inclination(rad): 0.9651879023 Rate of Right Ascen(r/s): -7.657461821e-09 SQRT(A) (m 1/2): 5153.673828 Right Ascen at Week(rad): -2.740300884 Argument of Perigee(rad): 0.09283804531 Mean Anom(rad): -0.9496015194 Af0(s): -4.295943603e-05 Af1(s/s): 0 week: 147 ******** Week 147 almanac for PRN-9 ******** ID: 9 Health: 0 Eccentricity: 0.002291679382 Time of Applicability(s): 233472 Orbital Inclination(rad): 0.9544200762 Rate of Right Ascen(r/s): -7.703178011e-09 SQRT(A) (m 1/2): 5153.585938 Right Ascen at Week(rad): 0.4028901671 Argument of Perigee(rad): 1.870538271 Mean Anom(rad): -0.606725729 Af0(s): -0.00028112052 Af1(s/s): 0 week: 147 ******** Week 147 almanac for PRN-10 ******** ID: 10 Health: 0 Eccentricity: 0.007496833801 Time of Applicability(s): 233472 Orbital Inclination(rad): 0.9723904214 Rate of Right Ascen(r/s): -7.966046103e-09 SQRT(A) (m 1/2): 5153.634766 Right Ascen at Week(rad): -0.6278943643 Argument of Perigee(rad): -2.523524231 Mean Anom(rad): 1.03062237 Af0(s): -0.0002441904785 Af1(s/s): -1.091394e-11 week: 147 ******** Week 147 almanac for PRN-11 ******** ID: 11 Health: 255 Eccentricity: 0.0002870559692 Time of Applicability(s): 233472 Orbital Inclination(rad): 0.9616106111 Rate of Right Ascen(r/s): -8.354633718e-09 SQRT(A) (m 1/2): 5153.711426 Right Ascen at Week(rad): -1.616603406 Argument of Perigee(rad): 2.841010318 Mean Anom(rad): -1.072473905 Af0(s): -8.064315185e-05 Af1(s/s): -4.001777e-11 week: 147 ******** Week 147 almanac for PRN-12 ******** ID: 12 Health: 0 Eccentricity: 0.008640289307 Time of Applicability(s): 233472 Orbital Inclination(rad): 0.9705448508 Rate of Right Ascen(r/s): -7.737465153e-09 SQRT(A) (m 1/2): 5153.556641 Right Ascen at Week(rad): 2.587691891 Argument of Perigee(rad): 1.240458658 Mean Anom(rad): 1.73053481 Af0(s): -0.0001303856567 Af1(s/s): -7.275958e-12 week: 147 ******** Week 147 almanac for PRN-13 ******** ID: 13 Health: 0 Eccentricity: 0.005794048309 Time of Applicability(s): 233472 Orbital Inclination(rad): 0.9687891619 Rate of Right Ascen(r/s): -7.543171346e-09 SQRT(A) (m 1/2): 5153.632812 Right Ascen at Week(rad): 0.5554643305 Argument of Perigee(rad): 0.965165657 Mean Anom(rad): -1.541795627 Af0(s): 0.0002012310425 Af1(s/s): 7.275958e-12 week: 147 ******** Week 147 almanac for PRN-14 ******** ID: 14 Health: 0 Eccentricity: 0.001373767853 Time of Applicability(s): 233472 Orbital Inclination(rad): 0.9539347151 Rate of Right Ascen(r/s): -7.886042771e-09 SQRT(A) (m 1/2): 5153.589355 Right Ascen at Week(rad): 2.556625784 Argument of Perigee(rad): 3.03101908 Mean Anom(rad): 1.780277957 Af0(s): -6.180129394e-05 Af1(s/s): -3.637979e-12 week: 147 ******** Week 147 almanac for PRN-15 ******** ID: 15 Health: 0 Eccentricity: 0.01391792297 Time of Applicability(s): 233472 Orbital Inclination(rad): 0.9303078157 Rate of Right Ascen(r/s): -7.886042771e-09 SQRT(A) (m 1/2): 5153.685059 Right Ascen at Week(rad): 0.2972413599 Argument of Perigee(rad): 1.073543122 Mean Anom(rad): -1.954411367 Af0(s): -6.858436279e-05 Af1(s/s): 3.637979e-12 week: 147 ******** Week 147 almanac for PRN-16 ******** ID: 16 Health: 0 Eccentricity: 0.01272296906 Time of Applicability(s): 233472 Orbital Inclination(rad): 0.9705208824 Rate of Right Ascen(r/s): -7.703178011e-09 SQRT(A) (m 1/2): 5153.544922 Right Ascen at Week(rad): 2.606310508 Argument of Perigee(rad): 0.702181953 Mean Anom(rad): -0.1246711427 Af0(s): -0.0003662857178 Af1(s/s): -3.637979e-12 week: 147 ******** Week 147 almanac for PRN-17 ******** ID: 17 Health: 0 Eccentricity: 0.01365709305 Time of Applicability(s): 233472 Orbital Inclination(rad): 0.9802580651 Rate of Right Ascen(r/s): -7.543171346e-09 SQRT(A) (m 1/2): 5153.713379 Right Ascen at Week(rad): -2.65864824 Argument of Perigee(rad): -1.501718132 Mean Anom(rad): -1.044829669 Af0(s): 0.0004499435669 Af1(s/s): 3.637979e-12 week: 147 ******** Week 147 almanac for PRN-18 ******** ID: 18 Health: 0 Eccentricity: 0.002095222473 Time of Applicability(s): 233472 Orbital Inclination(rad): 0.9702991742 Rate of Right Ascen(r/s): -8.251772291e-09 SQRT(A) (m 1/2): 5153.571777 Right Ascen at Week(rad): -1.652690903 Argument of Perigee(rad): 3.105345992 Mean Anom(rad): -3.032680393 Af0(s): 0.0001967089966 Af1(s/s): -7.275958e-12 week: 147 ******** Week 147 almanac for PRN-19 ******** ID: 19 Health: 0 Eccentricity: 0.008950233459 Time of Applicability(s): 233472 Orbital Inclination(rad): 0.9789877373 Rate of Right Ascen(r/s): -7.577458489e-09 SQRT(A) (m 1/2): 5153.644531 Right Ascen at Week(rad): -2.613769565 Argument of Perigee(rad): 2.002604055 Mean Anom(rad): 1.361995551 Af0(s): 8.968724365e-05 Af1(s/s): 3.637979e-12 week: 147 ******** Week 147 almanac for PRN-20 ******** ID: 20 Health: 0 Eccentricity: 0.005232810974 Time of Applicability(s): 233472 Orbital Inclination(rad): 0.9416508846 Rate of Right Ascen(r/s): -8.388920861e-09 SQRT(A) (m 1/2): 5153.684082 Right Ascen at Week(rad): -0.7790877203 Argument of Perigee(rad): 3.121247935 Mean Anom(rad): -2.196204714 Af0(s): 0.0004084914795 Af1(s/s): 0 week: 147 ******** Week 147 almanac for PRN-21 ******** ID: 21 Health: 0 Eccentricity: 0.02456998825 Time of Applicability(s): 233472 Orbital Inclination(rad): 0.9591059081 Rate of Right Ascen(r/s): -8.217485148e-09 SQRT(A) (m 1/2): 5153.535156 Right Ascen at Week(rad): -1.75128587 Argument of Perigee(rad): -1.014288995 Mean Anom(rad): -0.869975333 Af0(s): 0.0001243562622 Af1(s/s): 0 week: 147 ******** Week 147 almanac for PRN-22 ******** ID: 22 Health: 0 Eccentricity: 0.01282167435 Time of Applicability(s): 233472 Orbital Inclination(rad): 0.9615207295 Rate of Right Ascen(r/s): -7.611745631e-09 SQRT(A) (m 1/2): 5153.608887 Right Ascen at Week(rad): 0.5040100609 Argument of Perigee(rad): -1.87577313 Mean Anom(rad): -1.179219643 Af0(s): 0.0001635473267 Af1(s/s): 7.275958e-12 week: 147 ******** Week 147 almanac for PRN-23 ******** ID: 23 Health: 0 Eccentricity: 0.001981258392 Time of Applicability(s): 233472 Orbital Inclination(rad): 0.9674169681 Rate of Right Ascen(r/s): -8.057478483e-09 SQRT(A) (m 1/2): 5153.654297 Right Ascen at Week(rad): -0.6526773669 Argument of Perigee(rad): 2.948029446 Mean Anom(rad): 2.356250293 Af0(s): 4.522045898e-06 Af1(s/s): -3.637979e-12 week: 147 ******** Week 147 almanac for PRN-24 ******** ID: 24 Health: 0 Eccentricity: 0.01232004166 Time of Applicability(s): 233472 Orbital Inclination(rad): 0.934052886 Rate of Right Ascen(r/s): -8.297488481e-09 SQRT(A) (m 1/2): 5153.626465 Right Ascen at Week(rad): 1.392296541 Argument of Perigee(rad): 0.8055904592 Mean Anom(rad): -2.930630224 Af0(s): 0.0002185655518 Af1(s/s): 0 week: 147 ******** Week 147 almanac for PRN-25 ******** ID: 25 Health: 0 Eccentricity: 0.01045417786 Time of Applicability(s): 233472 Orbital Inclination(rad): 0.9579074856 Rate of Right Ascen(r/s): -7.897471818e-09 SQRT(A) (m 1/2): 5153.65918 Right Ascen at Week(rad): 2.511155388 Argument of Perigee(rad): 0.9754473729 Mean Anom(rad): 1.485810196 Af0(s): 0.0002208265747 Af1(s/s): 7.275958e-12 week: 147 ******** Week 147 almanac for PRN-26 ******** ID: 26 Health: 0 Eccentricity: 0.006850719452 Time of Applicability(s): 233472 Orbital Inclination(rad): 0.9387267337 Rate of Right Ascen(r/s): -8.091765626e-09 SQRT(A) (m 1/2): 5153.629883 Right Ascen at Week(rad): 2.464426273 Argument of Perigee(rad): 0.3601622857 Mean Anom(rad): 0.8347226119 Af0(s): 0.0001416907715 Af1(s/s): 3.637979e-12 week: 147 ******** Week 147 almanac for PRN-27 ******** ID: 27 Health: 0 Eccentricity: 0.01014184952 Time of Applicability(s): 233472 Orbital Inclination(rad): 0.9738764653 Rate of Right Ascen(r/s): -7.588887536e-09 SQRT(A) (m 1/2): 5153.611328 Right Ascen at Week(rad): -2.720996544 Argument of Perigee(rad): 0.6333078634 Mean Anom(rad): -1.005272738 Af0(s): 7.838212891e-05 Af1(s/s): 1.818989e-11 week: 147 ******** Week 147 almanac for PRN-29 ******** ID: 29 Health: 0 Eccentricity: 0.001796722412 Time of Applicability(s): 233472 Orbital Inclination(rad): 0.9822594307 Rate of Right Ascen(r/s): -7.520313251e-09 SQRT(A) (m 1/2): 5153.721191 Right Ascen at Week(rad): -2.645671197 Argument of Perigee(rad): 2.268531384 Mean Anom(rad): -0.8865944569 Af0(s): -0.0003753298096 Af1(s/s): -3.637979e-12 week: 147 ******** Week 147 almanac for PRN-30 ******** ID: 30 Health: 0 Eccentricity: 0.005463600159 Time of Applicability(s): 233472 Orbital Inclination(rad): 0.9357127011 Rate of Right Ascen(r/s): -8.274630386e-09 SQRT(A) (m 1/2): 5153.513672 Right Ascen at Week(rad): 1.488202547 Argument of Perigee(rad): -2.750079637 Mean Anom(rad): 2.415650478 Af0(s): -0.0004032157593 Af1(s/s): -3.637979e-12 week: 147 ******** Week 147 almanac for PRN-31 ******** ID: 31 Health: 0 Eccentricity: 0.01046180725 Time of Applicability(s): 233472 Orbital Inclination(rad): 0.9547676187 Rate of Right Ascen(r/s): -8.080336578e-09 SQRT(A) (m 1/2): 5153.615723 Right Ascen at Week(rad): 1.492897367 Argument of Perigee(rad): 0.3726708205 Mean Anom(rad): 1.934153907 Af0(s): -0.0001288783081 Af1(s/s): -3.637979e-12 week: 147 ******** Week 147 almanac for PRN-32 ******** ID: 32 Health: 0 Eccentricity: 0.005512714386 Time of Applicability(s): 233472 Orbital Inclination(rad): 0.9582789966 Rate of Right Ascen(r/s): -7.646032773e-09 SQRT(A) (m 1/2): 5153.727051 Right Ascen at Week(rad): 0.4140283807 Argument of Perigee(rad): -2.364748981 Mean Anom(rad): -0.3429795288 Af0(s): -4.748148193e-05 Af1(s/s): -7.275958e-12 week: 147